BAW2158 TBPB-TTPP

Flight info

Callsign BAW2158
Flight time 0h 41m
Altitude 28000
Route BGI UR515 POS
Aircraft B772/H-SDE2E3FGHIJ5LORVWXY/LB1D1

Departure

Time 2026-04-27 00:48
Airport Grantley Adams International Airport (TBPB)

Arrival

Time 2026-04-27 01:30
Airport Piarco International Airport (TTPP)
Time Latitude Longitude Altitude Speed Heading
2026-04-27 00:24 13.07877 -59.48751 181 ft 0 kts 346°
2026-04-27 00:40 13.07875 -59.48751 181 ft 2 kts 346°
2026-04-27 00:40 13.07851 -59.48744 180 ft 4 kts 338°
2026-04-27 00:40 13.07826 -59.48732 180 ft 4 kts 328°
2026-04-27 00:41 13.07805 -59.48715 180 ft 4 kts 313°
2026-04-27 00:41 13.07791 -59.48694 180 ft 4 kts 278°
2026-04-27 00:41 13.07791 -59.48679 180 ft 1 kts 256°
2026-04-27 00:41 13.07791 -59.48678 180 ft 0 kts 256°
2026-04-27 00:44 13.07784 -59.48706 180 ft 11 kts 255°
2026-04-27 00:44 13.07732 -59.48807 180 ft 20 kts 249°
2026-04-27 00:44 13.07696 -59.48945 181 ft 20 kts 257°
2026-04-27 00:44 13.07663 -59.49079 181 ft 20 kts 254°
2026-04-27 00:45 13.07629 -59.49215 181 ft 20 kts 256°
2026-04-27 00:45 13.07596 -59.49352 181 ft 20 kts 256°
2026-04-27 00:45 13.07562 -59.49488 180 ft 20 kts 256°
2026-04-27 00:45 13.07530 -59.49625 181 ft 20 kts 257°
2026-04-27 00:46 13.07496 -59.49761 181 ft 20 kts 256°
2026-04-27 00:46 13.07461 -59.49910 181 ft 23 kts 256°
2026-04-27 00:46 13.07420 -59.50078 181 ft 26 kts 256°
2026-04-27 00:46 13.07374 -59.50261 181 ft 28 kts 255°
2026-04-27 00:47 13.07324 -59.50460 181 ft 30 kts 255°
2026-04-27 00:47 13.07273 -59.50667 181 ft 30 kts 253°
2026-04-27 00:47 13.07155 -59.50710 181 ft 19 kts 159°
2026-04-27 00:47 13.07124 -59.50590 181 ft 19 kts 78°
2026-04-27 00:48 13.07167 -59.50420 182 ft 45 kts 76°
2026-04-27 00:48 13.07311 -59.49832 181 ft 124 kts 76°
2026-04-27 00:48 13.07579 -59.48825 527 ft 159 kts 76°
2026-04-27 00:48 13.07859 -59.47664 1036 ft 172 kts 77°
2026-04-27 00:49 13.08157 -59.46471 1819 ft 173 kts 76°
2026-04-27 00:49 13.08483 -59.45254 2437 ft 181 kts 75°
2026-04-27 00:49 13.08844 -59.44026 3019 ft 179 kts 75°
2026-04-27 00:49 13.09209 -59.42792 3599 ft 182 kts 75°
2026-04-27 00:50 13.09582 -59.41484 4182 ft 199 kts 81°
2026-04-27 00:50 13.08483 -59.38926 5262 ft 214 kts 148°
2026-04-27 00:50 13.07050 -59.38550 5728 ft 220 kts 181°
2026-04-27 00:51 13.05569 -59.39067 6305 ft 233 kts 211°
2026-04-27 00:51 13.04243 -59.40082 6865 ft 245 kts 213°
2026-04-27 00:51 13.02819 -59.41159 7447 ft 271 kts 214°
2026-04-27 00:51 13.01246 -59.42342 8014 ft 284 kts 214°
2026-04-27 00:52 12.99645 -59.43556 8545 ft 287 kts 213°
2026-04-27 00:52 12.98026 -59.44788 9103 ft 293 kts 214°
2026-04-27 00:52 12.96372 -59.46049 9891 ft 298 kts 215°
2026-04-27 00:52 12.94687 -59.47333 10696 ft 310 kts 215°
2026-04-27 00:53 12.92874 -59.48714 10984 ft 341 kts 214°
2026-04-27 00:53 12.90922 -59.50201 11650 ft 355 kts 214°
2026-04-27 00:53 12.88921 -59.51727 12658 ft 360 kts 216°
2026-04-27 00:53 12.86897 -59.53271 13738 ft 364 kts 216°
2026-04-27 00:54 12.84846 -59.54837 14621 ft 370 kts 215°
2026-04-27 00:54 12.82802 -59.56395 15654 ft 372 kts 215°
2026-04-27 00:54 12.80717 -59.57980 16720 ft 373 kts 214°
2026-04-27 00:54 12.78620 -59.59567 17746 ft 376 kts 214°
2026-04-27 00:55 12.76504 -59.61171 18706 ft 380 kts 215°
2026-04-27 00:55 12.74365 -59.62794 19588 ft 383 kts 214°
2026-04-27 00:55 12.72214 -59.64429 20499 ft 387 kts 215°
2026-04-27 00:55 12.70044 -59.66080 21391 ft 390 kts 215°
2026-04-27 00:56 12.67844 -59.67759 22198 ft 397 kts 216°
2026-04-27 00:56 12.65616 -59.69463 23065 ft 402 kts 216°
2026-04-27 00:56 12.63347 -59.71185 23740 ft 410 kts 215°
2026-04-27 00:56 12.61042 -59.72931 24420 ft 415 kts 215°
2026-04-27 00:57 12.58712 -59.74698 25207 ft 417 kts 216°
2026-04-27 00:57 12.56415 -59.76441 26009 ft 417 kts 216°
2026-04-27 00:57 12.54080 -59.78213 26844 ft 418 kts 216°
2026-04-27 00:57 12.51742 -59.79989 27546 ft 418 kts 216°
2026-04-27 00:58 12.49397 -59.81769 27998 ft 420 kts 216°
2026-04-27 00:58 12.44712 -59.85325 28011 ft 417 kts 216°
2026-04-27 00:59 12.40033 -59.88875 28030 ft 421 kts 216°
2026-04-27 00:59 12.35328 -59.92443 28031 ft 424 kts 215°
2026-04-27 01:00 12.30562 -59.96055 28032 ft 428 kts 215°
2026-04-27 01:00 12.25787 -59.99673 28028 ft 426 kts 216°
2026-04-27 01:01 12.21027 -60.03278 28033 ft 425 kts 215°
2026-04-27 01:01 12.16257 -60.06887 28032 ft 426 kts 215°
2026-04-27 01:02 12.12288 -60.09890 28028 ft 427 kts 215°
2026-04-27 01:02 12.07503 -60.13508 28025 ft 428 kts 215°
2026-04-27 01:03 12.02716 -60.17127 28027 ft 428 kts 215°
2026-04-27 01:03 11.97922 -60.20747 28025 ft 427 kts 215°
2026-04-27 01:04 11.93149 -60.24353 28025 ft 426 kts 215°
2026-04-27 01:04 11.88410 -60.27931 28020 ft 426 kts 215°
2026-04-27 01:05 11.83643 -60.31528 28020 ft 426 kts 215°
2026-04-27 01:05 11.78882 -60.35119 28023 ft 426 kts 215°
2026-04-27 01:06 11.74091 -60.38729 28023 ft 435 kts 214°
2026-04-27 01:06 11.71607 -60.40598 28028 ft 452 kts 214°
2026-04-27 01:06 11.69023 -60.42543 28029 ft 468 kts 214°
2026-04-27 01:06 11.66358 -60.44550 28025 ft 482 kts 214°
2026-04-27 01:07 11.63627 -60.46607 28023 ft 493 kts 215°
2026-04-27 01:07 11.58071 -60.50797 28006 ft 496 kts 215°
2026-04-27 01:08 11.52535 -60.54966 28001 ft 499 kts 215°
2026-04-27 01:08 11.46907 -60.59199 28005 ft 504 kts 215°
2026-04-27 01:09 11.41234 -60.63463 28000 ft 507 kts 215°
2026-04-27 01:09 11.38453 -60.65555 27986 ft 494 kts 215°
2026-04-27 01:09 11.35750 -60.67588 27669 ft 474 kts 215°
2026-04-27 01:09 11.33112 -60.69571 26976 ft 466 kts 214°
2026-04-27 01:10 11.30521 -60.71517 26320 ft 458 kts 214°
2026-04-27 01:10 11.27977 -60.73428 25694 ft 451 kts 214°
2026-04-27 01:10 11.25468 -60.75308 25034 ft 445 kts 214°
2026-04-27 01:10 11.22979 -60.77173 24394 ft 440 kts 214°
2026-04-27 01:11 11.20530 -60.79009 23775 ft 435 kts 214°
2026-04-27 01:11 11.18101 -60.80837 23073 ft 431 kts 215°
2026-04-27 01:11 11.15850 -60.82839 22416 ft 428 kts 223°
2026-04-27 01:11 11.13897 -60.85056 21827 ft 424 kts 228°
2026-04-27 01:12 11.12165 -60.87466 21257 ft 420 kts 235°
2026-04-27 01:12 11.10651 -60.89992 20695 ft 415 kts 236°
2026-04-27 01:12 11.09152 -60.92487 20130 ft 411 kts 236°
2026-04-27 01:12 11.07666 -60.94956 19562 ft 407 kts 236°
2026-04-27 01:13 11.06194 -60.97402 19002 ft 404 kts 236°
2026-04-27 01:13 11.04731 -60.99833 18464 ft 401 kts 236°
2026-04-27 01:13 11.03280 -61.02243 17858 ft 398 kts 236°
2026-04-27 01:13 11.01839 -61.04637 17291 ft 394 kts 236°
2026-04-27 01:14 11.00410 -61.07008 16761 ft 390 kts 236°
2026-04-27 01:14 10.98995 -61.09355 16207 ft 387 kts 236°
2026-04-27 01:14 10.97593 -61.11679 15688 ft 384 kts 236°
2026-04-27 01:14 10.96197 -61.13994 15159 ft 381 kts 236°
2026-04-27 01:15 10.94831 -61.16255 14648 ft 379 kts 236°
2026-04-27 01:15 10.93451 -61.18541 14122 ft 377 kts 235°
2026-04-27 01:15 10.92081 -61.20811 13562 ft 375 kts 236°
2026-04-27 01:15 10.90717 -61.23070 13010 ft 373 kts 236°
2026-04-27 01:16 10.89363 -61.25312 12487 ft 370 kts 236°
2026-04-27 01:16 10.88023 -61.27531 11963 ft 367 kts 236°
2026-04-27 01:16 10.86712 -61.29702 11466 ft 364 kts 236°
2026-04-27 01:16 10.85375 -61.31915 10926 ft 361 kts 236°
2026-04-27 01:17 10.84082 -61.34055 10531 ft 356 kts 236°
2026-04-27 01:17 10.82809 -61.36165 10383 ft 343 kts 235°
2026-04-27 01:17 10.81603 -61.38163 10211 ft 318 kts 235°
2026-04-27 01:17 10.80484 -61.40015 9989 ft 299 kts 234°
2026-04-27 01:18 10.79415 -61.41777 9589 ft 287 kts 234°
2026-04-27 01:18 10.78377 -61.43487 9207 ft 281 kts 234°
2026-04-27 01:18 10.77359 -61.45167 8844 ft 276 kts 234°
2026-04-27 01:18 10.76365 -61.46807 8492 ft 273 kts 234°
2026-04-27 01:19 10.75371 -61.48446 8136 ft 271 kts 234°
2026-04-27 01:19 10.74382 -61.50083 7821 ft 272 kts 235°
2026-04-27 01:19 10.73389 -61.51731 7494 ft 273 kts 235°
2026-04-27 01:19 10.72411 -61.53355 7143 ft 264 kts 235°
2026-04-27 01:20 10.71471 -61.54917 6812 ft 254 kts 234°
2026-04-27 01:20 10.70563 -61.56422 6474 ft 246 kts 234°
2026-04-27 01:20 10.69678 -61.57886 6124 ft 241 kts 234°
2026-04-27 01:20 10.68809 -61.59319 5750 ft 235 kts 234°
2026-04-27 01:21 10.67957 -61.60722 5399 ft 230 kts 234°
2026-04-27 01:21 10.67119 -61.62096 5018 ft 227 kts 234°
2026-04-27 01:21 10.66274 -61.63388 4726 ft 218 kts 224°
2026-04-27 01:21 10.65023 -61.64219 4344 ft 216 kts 195°
2026-04-27 01:22 10.63556 -61.64495 3991 ft 213 kts 175°
2026-04-27 01:22 10.62074 -61.64565 3592 ft 217 kts 188°
2026-04-27 01:22 10.60614 -61.64867 3257 ft 210 kts 172°
2026-04-27 01:22 10.59378 -61.64277 2941 ft 195 kts 124°
2026-04-27 01:23 10.58746 -61.63068 2784 ft 196 kts 114°
2026-04-27 01:23 10.58151 -61.61821 2673 ft 195 kts 102°
2026-04-27 01:23 10.58158 -61.60460 2574 ft 194 kts 82°
2026-04-27 01:23 10.58307 -61.59107 2453 ft 191 kts 84°
2026-04-27 01:24 10.58424 -61.57774 2377 ft 188 kts 84°
2026-04-27 01:24 10.58533 -61.56449 2238 ft 186 kts 84°
2026-04-27 01:24 10.58635 -61.55157 2123 ft 181 kts 85°
2026-04-27 01:24 10.58731 -61.53886 2034 ft 184 kts 85°
2026-04-27 01:25 10.58826 -61.52574 1943 ft 186 kts 85°
2026-04-27 01:25 10.58917 -61.51270 1848 ft 181 kts 84°
2026-04-27 01:25 10.59004 -61.50001 1752 ft 181 kts 84°
2026-04-27 01:25 10.59092 -61.48738 1636 ft 177 kts 85°
2026-04-27 01:26 10.59177 -61.47535 1526 ft 162 kts 85°
2026-04-27 01:26 10.59254 -61.46441 1522 ft 151 kts 83°
2026-04-27 01:26 10.59326 -61.45412 1483 ft 140 kts 83°
2026-04-27 01:26 10.59396 -61.44430 1442 ft 140 kts 83°
2026-04-27 01:27 10.59468 -61.43450 1440 ft 136 kts 84°
2026-04-27 01:27 10.59511 -61.42492 1419 ft 133 kts 86°
2026-04-27 01:27 10.59520 -61.41568 1234 ft 132 kts 86°
2026-04-27 01:27 10.59524 -61.40636 1072 ft 135 kts 89°
2026-04-27 01:28 10.59524 -61.39709 909 ft 127 kts 87°
2026-04-27 01:28 10.59515 -61.38809 756 ft 131 kts 91°
2026-04-27 01:28 10.59517 -61.37876 671 ft 132 kts 90°
2026-04-27 01:28 10.59529 -61.36938 387 ft 130 kts 91°
2026-04-27 01:29 10.59530 -61.36003 230 ft 135 kts 90°
2026-04-27 01:29 10.59535 -61.35049 46 ft 133 kts 90°
2026-04-27 01:29 10.59538 -61.34202 25 ft 96 kts 90°
2026-04-27 01:29 10.59540 -61.33665 22 ft 52 kts 88°
2026-04-27 01:30 10.59645 -61.33465 24 ft 15 kts 24°
2026-04-27 01:30 10.59709 -61.33521 22 ft 15 kts 276°
2026-04-27 01:30 10.59708 -61.33625 21 ft 15 kts 269°
2026-04-27 01:30 10.59724 -61.33724 24 ft 15 kts 310°
2026-04-27 01:31 10.59792 -61.33746 23 ft 1 kts 358°
2026-04-27 01:31 10.59808 -61.33751 23 ft 5 kts 336°
2026-04-27 01:31 10.59836 -61.33819 25 ft 18 kts 277°
2026-04-27 01:31 10.59835 -61.33968 25 ft 21 kts 269°
2026-04-27 01:32 10.59835 -61.34111 23 ft 14 kts 275°
2026-04-27 01:32 10.59864 -61.34172 21 ft 9 kts 316°
2026-04-27 01:32 10.59913 -61.34155 21 ft 9 kts 73°
2026-04-27 01:32 10.59934 -61.34108 22 ft 5 kts 56°
2026-04-27 01:33 10.59947 -61.34088 22 ft 0 kts 58°